owner,sensor,date,latitude,longitude,vertical_datum,sea_water_practical_salinity,qcFlag 
ENP,ioos.station.NOAA.NDBC:LBRF1:1,2016-09-01T00:00:00Z,25.4840,-81.1330,1.5,21.86,1111122 
ENP,ioos.station.NOAA.NDBC:LBRF1:1,2016-09-01T01:00:00Z,25.4840,-81.1330,1.5,19.5,11111222 
ENP,ioos.station.NOAA.NDBC:LBRF1:1,2016-09-01T02:00:00Z,25.4840,-81.1330,1.5,16.94,1111122 
ENP,ioos.station.NOAA.NDBC:LBRF1:1,2016-09-01T03:00:00Z,25.4840,-81.1330,1.5,14.53,1111122 
ENP,ioos.station.NOAA.NDBC:LBRF1:1,2016-09-01T04:00:00Z,25.4840,-81.1330,1.5,13.74,1111122 
ENP,ioos.station.NOAA.NDBC:LBRF1:1,2016-09-01T05:00:00Z,25.4840,-81.1330,1.5,14.4,11111222 
ENP,ioos.station.NOAA.NDBC:LBRF1:1,2016-09-01T06:00:00Z,25.4840,-81.1330,1.5,17.41,1111122 
ENP,ioos.station.NOAA.NDBC:LBRF1:1,2016-09-01T07:00:00Z,25.4840,-81.1330,1.5,20.82,1111122 
ENP,ioos.station.NOAA.NDBC:LBRF1:1,2016-09-01T08:00:00Z,25.4840,-81.1330,1.5,22.2,1111122 
ENP,ioos.station.NOAA.NDBC:LBRF1:1,2016-09-01T09:00:00Z,25.4840,-81.1330,1.5,22.6,11111222 
ENP,ioos.station.NOAA.NDBC:LBRF1:1,2016-09-01T10:00:00Z,25.4840,-81.1330,1.5,22.76,1111122 
ENP,ioos.station.NOAA.NDBC:LBRF1:1,2016-09-01T11:00:00Z,25.4840,-81.1330,1.5,22.06,1111122 
ENP,ioos.station.NOAA.NDBC:LBRF1:1,2016-09-01T12:00:00Z,25.4840,-81.1330,1.5,21.03,1111122 
ENP,ioos.station.NOAA.NDBC:LBRF1:1,2016-09-01T13:00:00Z,25.4840,-81.1330,1.5,18.4,11111222 
ENP,ioos.station.NOAA.NDBC:LBRF1:1,2016-09-01T14:00:00Z,25.4840,-81.1330,1.5,15.7,11111222 
ENP,ioos.station.NOAA.NDBC:LBRF1:1,2016-09-01T15:00:00Z,25.4840,-81.1330,1.5,14.1,11111222 
ENP,ioos.station.NOAA.NDBC:LBRF1:1,2016-09-01T16:00:00Z,25.4840,-81.1330,1.5,14.1,11111222 
ENP,ioos.station.NOAA.NDBC:LBRF1:1,2016-09-01T17:00:00Z,25.4840,-81.1330,1.5,15.9,11111222 
ENP,ioos.station.NOAA.NDBC:LBRF1:1,2016-09-01T18:00:00Z,25.4840,-81.1330,1.5,19.5,11111222 
ENP,ioos.station.NOAA.NDBC:LBRF1:1,2016-09-01T19:00:00Z,25.4840,-81.1330,1.5,22.06,1111122 
ENP,ioos.station.NOAA.NDBC:LBRF1:1,2016-09-01T20:00:00Z,25.4840,-81.1330,1.5,24.8,11111222 
ENP,ioos.station.NOAA.NDBC:LBRF1:1,2016-09-01T21:00:00Z,25.4840,-81.1330,1.5,26.0,11111222 
ENP,ioos.station.NOAA.NDBC:LBRF1:1,2016-09-01T22:00:00Z,25.4840,-81.1330,1.5,26.1,11111222 
ENP,ioos.station.NOAA.NDBC:LBRF1:1,2016-09-01T23:00:00Z,25.4840,-81.1330,1.5,26.0,11111222 
ENP,ioos.station.NOAA.NDBC:LBRF1:1,2016-09-02T00:00:00Z,25.4840,-81.1330,1.5,24.6,11111222 
ENP,ioos.station.NOAA.NDBC:LBRF1:1,2016-09-02T01:00:00Z,25.4840,-81.1330,1.5,23.7,11111222 
ENP,ioos.station.NOAA.NDBC:LBRF1:1,2016-09-02T02:00:00Z,25.4840,-81.1330,1.5,21.3,11111222 
ENP,ioos.station.NOAA.NDBC:LBRF1:1,2016-09-02T03:00:00Z,25.4840,-81.1330,1.5,19.7,11111222 
ENP,ioos.station.NOAA.NDBC:LBRF1:1,2016-09-02T04:00:00Z,25.4840,-81.1330,1.5,18.8,11111222 
ENP,ioos.station.NOAA.NDBC:LBRF1:1,2016-09-02T05:00:00Z,25.4840,-81.1330,1.5,18.4,11111222 
ENP,ioos.station.NOAA.NDBC:LBRF1:1,2016-09-02T06:00:00Z,25.4840,-81.1330,1.5,19.0,11111222 
ENP,ioos.station.NOAA.NDBC:LBRF1:1,2016-09-02T07:00:00Z,25.4840,-81.1330,1.5,21.9,11111222 
ENP,ioos.station.NOAA.NDBC:LBRF1:1,2016-09-02T08:00:00Z,25.4840,-81.1330,1.5,23.6,11111222 
ENP,ioos.station.NOAA.NDBC:LBRF1:1,2016-09-02T09:00:00Z,25.4840,-81.1330,1.5,24.7,11111222 
ENP,ioos.station.NOAA.NDBC:LBRF1:1,2016-09-02T10:00:00Z,25.4840,-81.1330,1.5,25.1,11111222 
ENP,ioos.station.NOAA.NDBC:LBRF1:1,2016-09-02T11:00:00Z,25.4840,-81.1330,1.5,25.35,1111122 
ENP,ioos.station.NOAA.NDBC:LBRF1:1,2016-09-02T12:00:00Z,25.4840,-81.1330,1.5,25.28,1111122 
ENP,ioos.station.NOAA.NDBC:LBRF1:1,2016-09-02T13:00:00Z,25.4840,-81.1330,1.5,23.88,1111122 
ENP,ioos.station.NOAA.NDBC:LBRF1:1,2016-09-02T14:00:00Z,25.4840,-81.1330,1.5,23.25,1111122 
ENP,ioos.station.NOAA.NDBC:LBRF1:1,2016-09-02T15:00:00Z,25.4840,-81.1330,1.5,21.65,1111122 
ENP,ioos.station.NOAA.NDBC:LBRF1:1,2016-09-02T16:00:00Z,25.4840,-81.1330,1.5,20.82,1111122 
ENP,ioos.station.NOAA.NDBC:LBRF1:1,2016-09-02T17:00:00Z,25.4840,-81.1330,1.5,20.82,1111122 
ENP,ioos.station.NOAA.NDBC:LBRF1:1,2016-09-02T18:00:00Z,25.4840,-81.1330,1.5,21.79,1111122 
ENP,ioos.station.NOAA.NDBC:LBRF1:1,2016-09-02T19:00:00Z,25.4840,-81.1330,1.5,23.11,1111122 
ENP,ioos.station.NOAA.NDBC:LBRF1:1,2016-09-02T20:00:00Z,25.4840,-81.1330,1.5,24.23,1111122 
ENP,ioos.station.NOAA.NDBC:LBRF1:1,2016-09-02T21:00:00Z,25.4840,-81.1330,1.5,25.0,1111122 
ENP,ioos.station.NOAA.NDBC:LBRF1:1,2016-09-02T22:00:00Z,25.4840,-81.1330,1.5,25.56,1111122 
ENP,ioos.station.NOAA.NDBC:LBRF1:1,2016-09-02T23:00:00Z,25.4840,-81.1330,1.5,25.56,1111122 
ENP,ioos.station.NOAA.NDBC:LBRF1:1,2016-09-03T00:00:00Z,25.4840,-81.1330,1.5,24.37,1111122 
ENP,ioos.station.NOAA.NDBC:LBRF1:1,2016-09-03T01:00:00Z,25.4840,-81.1330,1.5,23.7,11111222 
ENP,ioos.station.NOAA.NDBC:LBRF1:1,2016-09-03T02:00:00Z,25.4840,-81.1330,1.5,21.37,1111122 
ENP,ioos.station.NOAA.NDBC:LBRF1:1,2016-09-03T03:00:00Z,25.4840,-81.1330,1.5,19.86,1111122 
ENP,ioos.station.NOAA.NDBC:LBRF1:1,2016-09-03T04:00:00Z,25.4840,-81.1330,1.5,17.54,1111122 
ENP,ioos.station.NOAA.NDBC:LBRF1:1,2016-09-03T05:00:00Z,25.4840,-81.1330,1.5,16.3,11111222 
ENP,ioos.station.NOAA.NDBC:LBRF1:1,2016-09-03T06:00:00Z,25.4840,-81.1330,1.5,16.26,1111122 
ENP,ioos.station.NOAA.NDBC:LBRF1:1,2016-09-03T07:00:00Z,25.4840,-81.1330,1.5,17.61,1111122 
ENP,ioos.station.NOAA.NDBC:LBRF1:1,2016-09-03T08:00:00Z,25.4840,-81.1330,1.5,20.61,1111122 
ENP,ioos.station.NOAA.NDBC:LBRF1:1,2016-09-03T09:00:00Z,25.4840,-81.1330,1.5,23.3,11111222 
ENP,ioos.station.NOAA.NDBC:LBRF1:1,2016-09-03T10:00:00Z,25.4840,-81.1330,1.5,24.16,1111122 
ENP,ioos.station.NOAA.NDBC:LBRF1:1,2016-09-03T11:00:00Z,25.4840,-81.1330,1.5,24.09,1111122 
ENP,ioos.station.NOAA.NDBC:LBRF1:1,2016-09-03T12:00:00Z,25.4840,-81.1330,1.5,21.1,1111122 
ENP,ioos.station.NOAA.NDBC:LBRF1:1,2016-09-03T13:00:00Z,25.4840,-81.1330,1.5,18.7,1111122 
ENP,ioos.station.NOAA.NDBC:LBRF1:1,2016-09-03T14:00:00Z,25.4840,-81.1330,1.5,15.06,1111122 
ENP,ioos.station.NOAA.NDBC:LBRF1:1,2016-09-03T15:00:00Z,25.4840,-81.1330,1.5,13.21,1111122 
ENP,ioos.station.NOAA.NDBC:LBRF1:1,2016-09-03T16:00:00Z,25.4840,-81.1330,1.5,11.32,1111122 
ENP,ioos.station.NOAA.NDBC:LBRF1:1,2016-09-03T17:00:00Z,25.4840,-81.1330,1.5,10.61,1111122 
ENP,ioos.station.NOAA.NDBC:LBRF1:1,2016-09-03T18:00:00Z,25.4840,-81.1330,1.5,10.68,1111122 
ENP,ioos.station.NOAA.NDBC:LBRF1:1,2016-09-03T19:00:00Z,25.4840,-81.1330,1.5,13.67,1111122 
ENP,ioos.station.NOAA.NDBC:LBRF1:1,2016-09-03T20:00:00Z,25.4840,-81.1330,1.5,21.3,1111122 
ENP,ioos.station.NOAA.NDBC:LBRF1:1,2016-09-03T21:00:00Z,25.4840,-81.1330,1.5,24.79,1111122 
ENP,ioos.station.NOAA.NDBC:LBRF1:1,2016-09-03T22:00:00Z,25.4840,-81.1330,1.5,25.71,1111122 
ENP,ioos.station.NOAA.NDBC:LBRF1:1,2016-09-03T23:00:00Z,25.4840,-81.1330,1.5,25.56,1111122 
ENP,ioos.station.NOAA.NDBC:LBRF1:1,2016-09-04T00:00:00Z,25.4840,-81.1330,1.5,23.53,1111122 
ENP,ioos.station.NOAA.NDBC:LBRF1:1,2016-09-04T01:00:00Z,25.4840,-81.1330,1.5,21.4,11111222 
ENP,ioos.station.NOAA.NDBC:LBRF1:1,2016-09-04T02:00:00Z,25.4840,-81.1330,1.5,16.2,1111122 
ENP,ioos.station.NOAA.NDBC:LBRF1:1,2016-09-04T03:00:00Z,25.4840,-81.1330,1.5,12.49,1111122 
ENP,ioos.station.NOAA.NDBC:LBRF1:1,2016-09-04T04:00:00Z,25.4840,-81.1330,1.5,10.74,1111122 
ENP,ioos.station.NOAA.NDBC:LBRF1:1,2016-09-04T05:00:00Z,25.4840,-81.1330,1.5,10.2,11111222 
ENP,ioos.station.NOAA.NDBC:LBRF1:1,2016-09-04T06:00:00Z,25.4840,-81.1330,1.5,10.04,1111122 
ENP,ioos.station.NOAA.NDBC:LBRF1:1,2016-09-04T07:00:00Z,25.4840,-81.1330,1.5,10.16,1111122 
ENP,ioos.station.NOAA.NDBC:LBRF1:1,2016-09-04T08:00:00Z,25.4840,-81.1330,1.5,13.61,1111122 
ENP,ioos.station.NOAA.NDBC:LBRF1:1,2016-09-04T09:00:00Z,25.4840,-81.1330,1.5,20.5,11111222 
ENP,ioos.station.NOAA.NDBC:LBRF1:1,2016-09-04T10:00:00Z,25.4840,-81.1330,1.5,22.83,1111122 
ENP,ioos.station.NOAA.NDBC:LBRF1:1,2016-09-04T11:00:00Z,25.4840,-81.1330,1.5,22.13,1111122 
ENP,ioos.station.NOAA.NDBC:LBRF1:1,2016-09-04T12:00:00Z,25.4840,-81.1330,1.5,16.26,1111122 
ENP,ioos.station.NOAA.NDBC:LBRF1:1,2016-09-04T13:00:00Z,25.4840,-81.1330,1.5,12.49,1111122 
ENP,ioos.station.NOAA.NDBC:LBRF1:1,2016-09-04T14:00:00Z,25.4840,-81.1330,1.5,10.29,1111122 
ENP,ioos.station.NOAA.NDBC:LBRF1:1,2016-09-04T15:00:00Z,25.4840,-81.1330,1.5,9.4,1111122 
ENP,ioos.station.NOAA.NDBC:LBRF1:1,2016-09-04T16:00:00Z,25.4840,-81.1330,1.5,8.77,1111122 
ENP,ioos.station.NOAA.NDBC:LBRF1:1,2016-09-04T17:00:00Z,25.4840,-81.1330,1.5,8.29,1111122 
ENP,ioos.station.NOAA.NDBC:LBRF1:1,2016-09-04T18:00:00Z,25.4840,-81.1330,1.5,7.95,1111122 
ENP,ioos.station.NOAA.NDBC:LBRF1:1,2016-09-04T19:00:00Z,25.4840,-81.1330,1.5,7.93,1111122 
ENP,ioos.station.NOAA.NDBC:LBRF1:1,2016-09-04T20:00:00Z,25.4840,-81.1330,1.5,8.45,1111122 
ENP,ioos.station.NOAA.NDBC:LBRF1:1,2016-09-04T21:00:00Z,25.4840,-81.1330,1.5,17.27,1111122 
ENP,ioos.station.NOAA.NDBC:LBRF1:1,2016-09-04T22:00:00Z,25.4840,-81.1330,1.5,22.34,1111122 
ENP,ioos.station.NOAA.NDBC:LBRF1:1,2016-09-04T23:00:00Z,25.4840,-81.1330,1.5,23.25,1111122 
ENP,ioos.station.NOAA.NDBC:LBRF1:1,2016-09-05T00:00:00Z,25.4840,-81.1330,1.5,21.03,1111122 
ENP,ioos.station.NOAA.NDBC:LBRF1:1,2016-09-05T01:00:00Z,25.4840,-81.1330,1.5,14.9,11111222 
ENP,ioos.station.NOAA.NDBC:LBRF1:1,2016-09-05T02:00:00Z,25.4840,-81.1330,1.5,9.91,1111122 
ENP,ioos.station.NOAA.NDBC:LBRF1:1,2016-09-05T03:00:00Z,25.4840,-81.1330,1.5,8.34,1111122 
ENP,ioos.station.NOAA.NDBC:LBRF1:1,2016-09-05T04:00:00Z,25.4840,-81.1330,1.5,7.8,11111222 
ENP,ioos.station.NOAA.NDBC:LBRF1:1,2016-09-05T05:00:00Z,25.4840,-81.1330,1.5,7.54,1111122 
ENP,ioos.station.NOAA.NDBC:LBRF1:1,2016-09-05T06:00:00Z,25.4840,-81.1330,1.5,7.37,1111122 
ENP,ioos.station.NOAA.NDBC:LBRF1:1,2016-09-05T07:00:00Z,25.4840,-81.1330,1.5,7.32,1111122 
ENP,ioos.station.NOAA.NDBC:LBRF1:1,2016-09-05T08:00:00Z,25.4840,-81.1330,1.5,7.42,1111122 
ENP,ioos.station.NOAA.NDBC:LBRF1:1,2016-09-05T09:00:00Z,25.4840,-81.1330,1.5,12.6,11111222 
ENP,ioos.station.NOAA.NDBC:LBRF1:1,2016-09-05T10:00:00Z,25.4840,-81.1330,1.5,19.31,1111122 
ENP,ioos.station.NOAA.NDBC:LBRF1:1,2016-09-05T11:00:00Z,25.4840,-81.1330,1.5,21.58,1111122 
ENP,ioos.station.NOAA.NDBC:LBRF1:1,2016-09-05T12:00:00Z,25.4840,-81.1330,1.5,16.87,1111122 
ENP,ioos.station.NOAA.NDBC:LBRF1:1,2016-09-05T13:00:00Z,25.4840,-81.1330,1.5,11.06,1111122 
ENP,ioos.station.NOAA.NDBC:LBRF1:1,2016-09-05T14:00:00Z,25.4840,-81.1330,1.5,8.13,1111122 
ENP,ioos.station.NOAA.NDBC:LBRF1:1,2016-09-05T15:00:00Z,25.4840,-81.1330,1.5,7.31,1111122 
ENP,ioos.station.NOAA.NDBC:LBRF1:1,2016-09-05T16:00:00Z,25.4840,-81.1330,1.5,6.85,1111122 
ENP,ioos.station.NOAA.NDBC:LBRF1:1,2016-09-05T17:00:00Z,25.4840,-81.1330,1.5,6.58,1111122 
ENP,ioos.station.NOAA.NDBC:LBRF1:1,2016-09-05T18:00:00Z,25.4840,-81.1330,1.5,6.35,1111122 
ENP,ioos.station.NOAA.NDBC:LBRF1:1,2016-09-05T19:00:00Z,25.4840,-81.1330,1.5,6.19,1111122 
ENP,ioos.station.NOAA.NDBC:LBRF1:1,2016-09-05T20:00:00Z,25.4840,-81.1330,1.5,6.23,1111122 
ENP,ioos.station.NOAA.NDBC:LBRF1:1,2016-09-05T21:00:00Z,25.4840,-81.1330,1.5,6.51,1111122 
ENP,ioos.station.NOAA.NDBC:LBRF1:1,2016-09-05T22:00:00Z,25.4840,-81.1330,1.5,11.91,1111122 
ENP,ioos.station.NOAA.NDBC:LBRF1:1,2016-09-05T23:00:00Z,25.4840,-81.1330,1.5,17.54,1111122 
ENP,ioos.station.NOAA.NDBC:LBRF1:1,2016-09-06T00:00:00Z,25.4840,-81.1330,1.5,18.15,1111122 
ENP,ioos.station.NOAA.NDBC:LBRF1:1,2016-09-06T01:00:00Z,25.4840,-81.1330,1.5,9.8,11111222 
ENP,ioos.station.NOAA.NDBC:LBRF1:1,2016-09-06T02:00:00Z,25.4840,-81.1330,1.5,7.5,1111122 
ENP,ioos.station.NOAA.NDBC:LBRF1:1,2016-09-06T03:00:00Z,25.4840,-81.1330,1.5,6.67,1111122 
ENP,ioos.station.NOAA.NDBC:LBRF1:1,2016-09-06T04:00:00Z,25.4840,-81.1330,1.5,6.1,11111222 
ENP,ioos.station.NOAA.NDBC:LBRF1:1,2016-09-06T05:00:00Z,25.4840,-81.1330,1.5,5.71,1111122 
ENP,ioos.station.NOAA.NDBC:LBRF1:1,2016-09-06T06:00:00Z,25.4840,-81.1330,1.5,5.51,1111122 
ENP,ioos.station.NOAA.NDBC:LBRF1:1,2016-09-06T07:00:00Z,25.4840,-81.1330,1.5,5.38,1111122 
ENP,ioos.station.NOAA.NDBC:LBRF1:1,2016-09-06T08:00:00Z,25.4840,-81.1330,1.5,5.37,1111122 
ENP,ioos.station.NOAA.NDBC:LBRF1:1,2016-09-06T09:00:00Z,25.4840,-81.1330,1.5,5.54,1111122 
ENP,ioos.station.NOAA.NDBC:LBRF1:1,2016-09-06T10:00:00Z,25.4840,-81.1330,1.5,11.06,1111122 
ENP,ioos.station.NOAA.NDBC:LBRF1:1,2016-09-06T11:00:00Z,25.4840,-81.1330,1.5,17.41,1111122 
ENP,ioos.station.NOAA.NDBC:LBRF1:1,2016-09-06T12:00:00Z,25.4840,-81.1330,1.5,19.65,1111122 
ENP,ioos.station.NOAA.NDBC:LBRF1:1,2016-09-06T13:00:00Z,25.4840,-81.1330,1.5,11.39,1111122 
ENP,ioos.station.NOAA.NDBC:LBRF1:1,2016-09-06T14:00:00Z,25.4840,-81.1330,1.5,7.42,1111122 
ENP,ioos.station.NOAA.NDBC:LBRF1:1,2016-09-06T15:00:00Z,25.4840,-81.1330,1.5,6.02,1111122 
ENP,ioos.station.NOAA.NDBC:LBRF1:1,2016-09-06T16:00:00Z,25.4840,-81.1330,1.5,5.48,1111122 
ENP,ioos.station.NOAA.NDBC:LBRF1:1,2016-09-06T17:00:00Z,25.4840,-81.1330,1.5,5.08,1111122 
ENP,ioos.station.NOAA.NDBC:LBRF1:1,2016-09-06T18:00:00Z,25.4840,-81.1330,1.5,4.91,1111122 
ENP,ioos.station.NOAA.NDBC:LBRF1:1,2016-09-06T19:00:00Z,25.4840,-81.1330,1.5,4.75,1111122 
ENP,ioos.station.NOAA.NDBC:LBRF1:1,2016-09-06T20:00:00Z,25.4840,-81.1330,1.5,4.67,1111122 
ENP,ioos.station.NOAA.NDBC:LBRF1:1,2016-09-06T21:00:00Z,25.4840,-81.1330,1.5,4.67,1111122 
ENP,ioos.station.NOAA.NDBC:LBRF1:1,2016-09-06T22:00:00Z,25.4840,-81.1330,1.5,4.85,1111122 
ENP,ioos.station.NOAA.NDBC:LBRF1:1,2016-09-06T23:00:00Z,25.4840,-81.1330,1.5,7.78,1111122 
ENP,ioos.station.NOAA.NDBC:LBRF1:1,2016-09-07T00:00:00Z,25.4840,-81.1330,1.5,10.16,1111122 
ENP,ioos.station.NOAA.NDBC:LBRF1:1,2016-09-07T01:00:00Z,25.4840,-81.1330,1.5,6.8,11111222 
ENP,ioos.station.NOAA.NDBC:LBRF1:1,2016-09-07T02:00:00Z,25.4840,-81.1330,1.5,5.6,11111222 
ENP,ioos.station.NOAA.NDBC:LBRF1:1,2016-09-07T03:00:00Z,25.4840,-81.1330,1.5,4.94,1111122 
ENP,ioos.station.NOAA.NDBC:LBRF1:1,2016-09-07T04:00:00Z,25.4840,-81.1330,1.5,4.6,11111222 
ENP,ioos.station.NOAA.NDBC:LBRF1:1,2016-09-07T05:00:00Z,25.4840,-81.1330,1.5,4.38,1111122 
ENP,ioos.station.NOAA.NDBC:LBRF1:1,2016-09-07T06:00:00Z,25.4840,-81.1330,1.5,4.08,1111122 
ENP,ioos.station.NOAA.NDBC:LBRF1:1,2016-09-07T07:00:00Z,25.4840,-81.1330,1.5,3.96,1111122 
ENP,ioos.station.NOAA.NDBC:LBRF1:1,2016-09-07T08:00:00Z,25.4840,-81.1330,1.5,3.91,1111122 
ENP,ioos.station.NOAA.NDBC:LBRF1:1,2016-09-07T09:00:00Z,25.4840,-81.1330,1.5,4.1,11111222 
ENP,ioos.station.NOAA.NDBC:LBRF1:1,2016-09-07T10:00:00Z,25.4840,-81.1330,1.5,7.06,1111122 
ENP,ioos.station.NOAA.NDBC:LBRF1:1,2016-09-07T11:00:00Z,25.4840,-81.1330,1.5,14.0,1111122 
ENP,ioos.station.NOAA.NDBC:LBRF1:1,2016-09-07T12:00:00Z,25.4840,-81.1330,1.5,19.99,1111122 
ENP,ioos.station.NOAA.NDBC:LBRF1:1,2016-09-07T13:00:00Z,25.4840,-81.1330,1.5,18.63,1111122 
ENP,ioos.station.NOAA.NDBC:LBRF1:1,2016-09-07T14:00:00Z,25.4840,-81.1330,1.5,7.94,1111122 
ENP,ioos.station.NOAA.NDBC:LBRF1:1,2016-09-07T15:00:00Z,25.4840,-81.1330,1.5,5.1,11111222 
ENP,ioos.station.NOAA.NDBC:LBRF1:1,2016-09-07T16:00:00Z,25.4840,-81.1330,1.5,4.1,11111222 
ENP,ioos.station.NOAA.NDBC:LBRF1:1,2016-09-07T17:00:00Z,25.4840,-81.1330,1.5,3.95,1111122 
ENP,ioos.station.NOAA.NDBC:LBRF1:1,2016-09-07T18:00:00Z,25.4840,-81.1330,1.5,3.62,1111122 
ENP,ioos.station.NOAA.NDBC:LBRF1:1,2016-09-07T19:00:00Z,25.4840,-81.1330,1.5,3.56,1111122 
ENP,ioos.station.NOAA.NDBC:LBRF1:1,2016-09-07T20:00:00Z,25.4840,-81.1330,1.5,3.46,1111122 
ENP,ioos.station.NOAA.NDBC:LBRF1:1,2016-09-07T21:00:00Z,25.4840,-81.1330,1.5,3.39,1111122 
ENP,ioos.station.NOAA.NDBC:LBRF1:1,2016-09-07T22:00:00Z,25.4840,-81.1330,1.5,3.38,1111122 
ENP,ioos.station.NOAA.NDBC:LBRF1:1,2016-09-07T23:00:00Z,25.4840,-81.1330,1.5,4.7,1111122 
ENP,ioos.station.NOAA.NDBC:LBRF1:1,2016-09-08T00:00:00Z,25.4840,-81.1330,1.5,7.69,1111122 
ENP,ioos.station.NOAA.NDBC:LBRF1:1,2016-09-08T01:00:00Z,25.4840,-81.1330,1.5,9.5,11111222 
ENP,ioos.station.NOAA.NDBC:LBRF1:1,2016-09-08T02:00:00Z,25.4840,-81.1330,1.5,5.18,1111122 
ENP,ioos.station.NOAA.NDBC:LBRF1:1,2016-09-08T03:00:00Z,25.4840,-81.1330,1.5,3.92,1111122 
ENP,ioos.station.NOAA.NDBC:LBRF1:1,2016-09-08T04:00:00Z,25.4840,-81.1330,1.5,3.6,11111222 
ENP,ioos.station.NOAA.NDBC:LBRF1:1,2016-09-08T05:00:00Z,25.4840,-81.1330,1.5,3.4,1111122 
ENP,ioos.station.NOAA.NDBC:LBRF1:1,2016-09-08T06:00:00Z,25.4840,-81.1330,1.5,3.24,1111122 
ENP,ioos.station.NOAA.NDBC:LBRF1:1,2016-09-08T07:00:00Z,25.4840,-81.1330,1.5,3.13,1111122 
ENP,ioos.station.NOAA.NDBC:LBRF1:1,2016-09-08T08:00:00Z,25.4840,-81.1330,1.5,3.06,1111122 
ENP,ioos.station.NOAA.NDBC:LBRF1:1,2016-09-08T09:00:00Z,25.4840,-81.1330,1.5,5.96,1111122 
ENP,ioos.station.NOAA.NDBC:LBRF1:1,2016-09-08T10:00:00Z,25.4840,-81.1330,1.5,8.39,1111122 
ENP,ioos.station.NOAA.NDBC:LBRF1:1,2016-09-08T11:00:00Z,25.4840,-81.1330,1.5,12.56,1111122 
ENP,ioos.station.NOAA.NDBC:LBRF1:1,2016-09-08T12:00:00Z,25.4840,-81.1330,1.5,19.11,1111122 
ENP,ioos.station.NOAA.NDBC:LBRF1:1,2016-09-08T13:00:00Z,25.4840,-81.1330,1.5,22.41,1111122 
ENP,ioos.station.NOAA.NDBC:LBRF1:1,2016-09-08T14:00:00Z,25.4840,-81.1330,1.5,18.56,1111122 
ENP,ioos.station.NOAA.NDBC:LBRF1:1,2016-09-08T15:00:00Z,25.4840,-81.1330,1.5,8.77,1111122 
ENP,ioos.station.NOAA.NDBC:LBRF1:1,2016-09-08T16:00:00Z,25.4840,-81.1330,1.5,4.85,1111122 
ENP,ioos.station.NOAA.NDBC:LBRF1:1,2016-09-08T17:00:00Z,25.4840,-81.1330,1.5,3.26,1111122 
ENP,ioos.station.NOAA.NDBC:LBRF1:1,2016-09-08T18:00:00Z,25.4840,-81.1330,1.5,3.04,1111122 
ENP,ioos.station.NOAA.NDBC:LBRF1:1,2016-09-08T19:00:00Z,25.4840,-81.1330,1.5,2.93,1111122 
ENP,ioos.station.NOAA.NDBC:LBRF1:1,2016-09-08T20:00:00Z,25.4840,-81.1330,1.5,2.88,1111122 
ENP,ioos.station.NOAA.NDBC:LBRF1:1,2016-09-08T21:00:00Z,25.4840,-81.1330,1.5,2.83,1111122 
ENP,ioos.station.NOAA.NDBC:LBRF1:1,2016-09-08T22:00:00Z,25.4840,-81.1330,1.5,2.75,1111122 
ENP,ioos.station.NOAA.NDBC:LBRF1:1,2016-09-08T23:00:00Z,25.4840,-81.1330,1.5,2.81,1111122 
ENP,ioos.station.NOAA.NDBC:LBRF1:1,2016-09-09T00:00:00Z,25.4840,-81.1330,1.5,5.27,1111122 
ENP,ioos.station.NOAA.NDBC:LBRF1:1,2016-09-09T01:00:00Z,25.4840,-81.1330,1.5,8.0,11111222 
ENP,ioos.station.NOAA.NDBC:LBRF1:1,2016-09-09T02:00:00Z,25.4840,-81.1330,1.5,9.5,11111222 
ENP,ioos.station.NOAA.NDBC:LBRF1:1,2016-09-09T03:00:00Z,25.4840,-81.1330,1.5,9.21,1111122 
ENP,ioos.station.NOAA.NDBC:LBRF1:1,2016-09-09T04:00:00Z,25.4840,-81.1330,1.5,4.4,11111222 
ENP,ioos.station.NOAA.NDBC:LBRF1:1,2016-09-09T05:00:00Z,25.4840,-81.1330,1.5,3.17,1111122 
ENP,ioos.station.NOAA.NDBC:LBRF1:1,2016-09-09T06:00:00Z,25.4840,-81.1330,1.5,2.94,1111122 
ENP,ioos.station.NOAA.NDBC:LBRF1:1,2016-09-09T07:00:00Z,25.4840,-81.1330,1.5,2.8,1111122 
ENP,ioos.station.NOAA.NDBC:LBRF1:1,2016-09-09T08:00:00Z,25.4840,-81.1330,1.5,2.7,1111122 
ENP,ioos.station.NOAA.NDBC:LBRF1:1,2016-09-09T09:00:00Z,25.4840,-81.1330,1.5,12.69,1111122 
ENP,ioos.station.NOAA.NDBC:LBRF1:1,2016-09-09T10:00:00Z,25.4840,-81.1330,1.5,14.6,1111122 
ENP,ioos.station.NOAA.NDBC:LBRF1:1,2016-09-09T11:00:00Z,25.4840,-81.1330,1.5,18.22,1111122 
ENP,ioos.station.NOAA.NDBC:LBRF1:1,2016-09-09T12:00:00Z,25.4840,-81.1330,1.5,20.61,1111122 
ENP,ioos.station.NOAA.NDBC:LBRF1:1,2016-09-09T13:00:00Z,25.4840,-81.1330,1.5,25.14,1111122 
ENP,ioos.station.NOAA.NDBC:LBRF1:1,2016-09-09T14:00:00Z,25.4840,-81.1330,1.5,26.48,1111122 
ENP,ioos.station.NOAA.NDBC:LBRF1:1,2016-09-09T15:00:00Z,25.4840,-81.1330,1.5,23.46,1111122 
ENP,ioos.station.NOAA.NDBC:LBRF1:1,2016-09-09T16:00:00Z,25.4840,-81.1330,1.5,11.91,1111122 
ENP,ioos.station.NOAA.NDBC:LBRF1:1,2016-09-09T17:00:00Z,25.4840,-81.1330,1.5,5.8,1111122 
ENP,ioos.station.NOAA.NDBC:LBRF1:1,2016-09-09T18:00:00Z,25.4840,-81.1330,1.5,2.91,1111122 
ENP,ioos.station.NOAA.NDBC:LBRF1:1,2016-09-09T19:00:00Z,25.4840,-81.1330,1.5,2.58,1111122 
ENP,ioos.station.NOAA.NDBC:LBRF1:1,2016-09-09T20:00:00Z,25.4840,-81.1330,1.5,2.47,1111122 
ENP,ioos.station.NOAA.NDBC:LBRF1:1,2016-09-09T21:00:00Z,25.4840,-81.1330,1.5,2.45,1111122 
ENP,ioos.station.NOAA.NDBC:LBRF1:1,2016-09-09T22:00:00Z,25.4840,-81.1330,1.5,2.39,1111122 
ENP,ioos.station.NOAA.NDBC:LBRF1:1,2016-09-09T23:00:00Z,25.4840,-81.1330,1.5,2.35,1111122 
ENP,ioos.station.NOAA.NDBC:LBRF1:1,2016-09-10T00:00:00Z,25.4840,-81.1330,1.5,2.36,1111122 
ENP,ioos.station.NOAA.NDBC:LBRF1:1,2016-09-10T01:00:00Z,25.4840,-81.1330,1.5,4.2,11111222 
ENP,ioos.station.NOAA.NDBC:LBRF1:1,2016-09-10T02:00:00Z,25.4840,-81.1330,1.5,7.8,11111222 
ENP,ioos.station.NOAA.NDBC:LBRF1:1,2016-09-10T03:00:00Z,25.4840,-81.1330,1.5,8.64,1111122 
ENP,ioos.station.NOAA.NDBC:LBRF1:1,2016-09-10T04:00:00Z,25.4840,-81.1330,1.5,6.6,11111222 
ENP,ioos.station.NOAA.NDBC:LBRF1:1,2016-09-10T05:00:00Z,25.4840,-81.1330,1.5,2.8,11111222 
ENP,ioos.station.NOAA.NDBC:LBRF1:1,2016-09-10T06:00:00Z,25.4840,-81.1330,1.5,2.57,1111122 
ENP,ioos.station.NOAA.NDBC:LBRF1:1,2016-09-10T07:00:00Z,25.4840,-81.1330,1.5,2.39,1111122 
ENP,ioos.station.NOAA.NDBC:LBRF1:1,2016-09-10T08:00:00Z,25.4840,-81.1330,1.5,2.26,1111122 
ENP,ioos.station.NOAA.NDBC:LBRF1:1,2016-09-10T09:00:00Z,25.4840,-81.1330,1.5,2.2,11111222 
ENP,ioos.station.NOAA.NDBC:LBRF1:1,2016-09-10T10:00:00Z,25.4840,-81.1330,1.5,2.27,1111122 
ENP,ioos.station.NOAA.NDBC:LBRF1:1,2016-09-10T11:00:00Z,25.4840,-81.1330,1.5,11.13,1111122 
ENP,ioos.station.NOAA.NDBC:LBRF1:1,2016-09-10T12:00:00Z,25.4840,-81.1330,1.5,11.52,1111122 
ENP,ioos.station.NOAA.NDBC:LBRF1:1,2016-09-10T13:00:00Z,25.4840,-81.1330,1.5,18.29,1111122 
ENP,ioos.station.NOAA.NDBC:LBRF1:1,2016-09-10T14:00:00Z,25.4840,-81.1330,1.5,24.79,1111122 
ENP,ioos.station.NOAA.NDBC:LBRF1:1,2016-09-10T15:00:00Z,25.4840,-81.1330,1.5,26.98,1111122 
ENP,ioos.station.NOAA.NDBC:LBRF1:1,2016-09-10T16:00:00Z,25.4840,-81.1330,1.5,27.41,1111122 
ENP,ioos.station.NOAA.NDBC:LBRF1:1,2016-09-10T17:00:00Z,25.4840,-81.1330,1.5,25.0,1111122 
ENP,ioos.station.NOAA.NDBC:LBRF1:1,2016-09-10T18:00:00Z,25.4840,-81.1330,1.5,13.47,1111122 
ENP,ioos.station.NOAA.NDBC:LBRF1:1,2016-09-10T19:00:00Z,25.4840,-81.1330,1.5,7.59,1111122 
ENP,ioos.station.NOAA.NDBC:LBRF1:1,2016-09-10T20:00:00Z,25.4840,-81.1330,1.5,3.95,1111122 
ENP,ioos.station.NOAA.NDBC:LBRF1:1,2016-09-10T21:00:00Z,25.4840,-81.1330,1.5,2.52,1111122 
ENP,ioos.station.NOAA.NDBC:LBRF1:1,2016-09-10T22:00:00Z,25.4840,-81.1330,1.5,2.34,1111122 
ENP,ioos.station.NOAA.NDBC:LBRF1:1,2016-09-10T23:00:00Z,25.4840,-81.1330,1.5,2.25,1111122 
ENP,ioos.station.NOAA.NDBC:LBRF1:1,2016-09-11T00:00:00Z,25.4840,-81.1330,1.5,2.27,1111122 
ENP,ioos.station.NOAA.NDBC:LBRF1:1,2016-09-11T01:00:00Z,25.4840,-81.1330,1.5,9.7,11111222 
ENP,ioos.station.NOAA.NDBC:LBRF1:1,2016-09-11T02:00:00Z,25.4840,-81.1330,1.5,12.8,11111222 
ENP,ioos.station.NOAA.NDBC:LBRF1:1,2016-09-11T03:00:00Z,25.4840,-81.1330,1.5,13.87,1111122 
ENP,ioos.station.NOAA.NDBC:LBRF1:1,2016-09-11T04:00:00Z,25.4840,-81.1330,1.5,16.9,11111222 
ENP,ioos.station.NOAA.NDBC:LBRF1:1,2016-09-11T05:00:00Z,25.4840,-81.1330,1.5,17.88,1111122 
ENP,ioos.station.NOAA.NDBC:LBRF1:1,2016-09-11T06:00:00Z,25.4840,-81.1330,1.5,15.4,1111122 
ENP,ioos.station.NOAA.NDBC:LBRF1:1,2016-09-11T07:00:00Z,25.4840,-81.1330,1.5,9.27,1111122 
ENP,ioos.station.NOAA.NDBC:LBRF1:1,2016-09-11T08:00:00Z,25.4840,-81.1330,1.5,5.69,1111122 
ENP,ioos.station.NOAA.NDBC:LBRF1:1,2016-09-11T09:00:00Z,25.4840,-81.1330,1.5,3.1,11111222 
ENP,ioos.station.NOAA.NDBC:LBRF1:1,2016-09-11T10:00:00Z,25.4840,-81.1330,1.5,2.57,1111122 
ENP,ioos.station.NOAA.NDBC:LBRF1:1,2016-09-11T11:00:00Z,25.4840,-81.1330,1.5,12.04,1111122 
ENP,ioos.station.NOAA.NDBC:LBRF1:1,2016-09-11T12:00:00Z,25.4840,-81.1330,1.5,16.2,1111122 
ENP,ioos.station.NOAA.NDBC:LBRF1:1,2016-09-11T13:00:00Z,25.4840,-81.1330,1.5,18.09,1111122 
ENP,ioos.station.NOAA.NDBC:LBRF1:1,2016-09-11T14:00:00Z,25.4840,-81.1330,1.5,19.65,1111122 
ENP,ioos.station.NOAA.NDBC:LBRF1:1,2016-09-11T15:00:00Z,25.4840,-81.1330,1.5,23.11,1111122 
ENP,ioos.station.NOAA.NDBC:LBRF1:1,2016-09-11T16:00:00Z,25.4840,-81.1330,1.5,24.72,1111122 
ENP,ioos.station.NOAA.NDBC:LBRF1:1,2016-09-11T17:00:00Z,25.4840,-81.1330,1.5,24.79,1111122 
ENP,ioos.station.NOAA.NDBC:LBRF1:1,2016-09-11T18:00:00Z,25.4840,-81.1330,1.5,22.48,1111122 
ENP,ioos.station.NOAA.NDBC:LBRF1:1,2016-09-11T19:00:00Z,25.4840,-81.1330,1.5,15.53,1111122 
ENP,ioos.station.NOAA.NDBC:LBRF1:1,2016-09-11T20:00:00Z,25.4840,-81.1330,1.5,10.74,1111122 